Language: 


Des rapports , des résumés tant et plus, au choix de chacun....


Données statistiques de la station
Quotidien Rapport Octobre 29, 2017 Unités:  Métrique    Anglais   les deux
« Précédent Jour
Suivant Jour »
Quotidien Hebdomadaire Mensuel Annuel Actuel
  Haut: Bas: Moyen:
Température: 14.8 °C 0.0 °C 11.7 °C
Pt de rosée: 14.0 °C 5.0 °C 9.4 °C
Humidité: 98 % 0 % 85 %
Vitesse du vent: 30.6 km/h 0.0 km/h 6 km/h
Rafales: 31.7 km/h - -
Vent:- - WSW
Pression: 1026.0 hPa 0.0 hPa -
Précipitation: 3.0 mm    
Historical Graphs
 
 
Données statistiques pour Octobre 29, 2017
Heure Température Point de rosée Pression Vent Vitesse du vent Refales Humidité Pluie (taux horaire)
00:02 13.8 °C 11.0 °C 1019.9 hPa WSW 15.8 km/h 15.8 km/h 83 % 0.0 mm
00:07 13.8 °C 11.0 °C 1019.9 hPa WSW 15.8 km/h 15.8 km/h 83 % 0.0 mm
00:13 13.8 °C 11.0 °C 1019.9 hPa WSW 15.8 km/h 15.8 km/h 83 % 0.0 mm
00:18 13.8 °C 11.0 °C 1019.9 hPa WSW 15.8 km/h 15.8 km/h 83 % 0.0 mm
00:23 13.8 °C 11.0 °C 1019.9 hPa WSW 15.8 km/h 15.8 km/h 83 % 0.0 mm
00:28 13.8 °C 11.0 °C 1019.9 hPa WSW 15.8 km/h 15.8 km/h 83 % 0.0 mm
00:33 13.8 °C 11.0 °C 1019.9 hPa WSW 15.8 km/h 15.8 km/h 83 % 0.0 mm
00:38 13.8 °C 11.0 °C 1019.9 hPa WSW 15.8 km/h 15.8 km/h 83 % 0.0 mm
00:43 13.8 °C 11.0 °C 1019.9 hPa WSW 15.8 km/h 15.8 km/h 83 % 0.0 mm
00:48 13.8 °C 11.0 °C 1019.9 hPa WSW 15.8 km/h 15.8 km/h 83 % 0.0 mm
00:53 13.8 °C 11.0 °C 1019.9 hPa WSW 15.8 km/h 15.8 km/h 83 % 0.0 mm
00:58 13.8 °C 11.0 °C 1019.9 hPa WSW 15.8 km/h 15.8 km/h 83 % 0.0 mm
01:03 13.8 °C 11.0 °C 1019.9 hPa WSW 15.8 km/h 15.8 km/h 83 % 0.0 mm
01:08 13.8 °C 11.0 °C 1019.9 hPa WSW 15.8 km/h 15.8 km/h 83 % 0.0 mm
01:13 13.8 °C 11.0 °C 1019.9 hPa WSW 15.8 km/h 15.8 km/h 83 % 0.0 mm
01:18 13.8 °C 11.0 °C 1019.9 hPa WSW 15.8 km/h 15.8 km/h 83 % 0.0 mm
01:23 13.8 °C 11.0 °C 1019.9 hPa WSW 15.8 km/h 15.8 km/h 83 % 0.0 mm
01:28 13.8 °C 11.0 °C 1019.9 hPa WSW 15.8 km/h 15.8 km/h 83 % 0.0 mm
01:33 13.8 °C 11.0 °C 1019.9 hPa WSW 15.8 km/h 15.8 km/h 83 % 0.0 mm
01:38 13.8 °C 11.0 °C 1019.9 hPa WSW 15.8 km/h 15.8 km/h 83 % 0.0 mm
01:43 13.8 °C 11.0 °C 1019.9 hPa WSW 15.8 km/h 15.8 km/h 83 % 0.0 mm
01:48 13.8 °C 11.0 °C 1019.9 hPa WSW 15.8 km/h 15.8 km/h 83 % 0.0 mm
01:53 13.8 °C 11.0 °C 1019.9 hPa WSW 15.8 km/h 15.8 km/h 83 % 0.0 mm
01:59 13.8 °C 11.0 °C 1019.9 hPa WSW 15.8 km/h 15.8 km/h 83 % 0.0 mm
02:04 13.8 °C 11.0 °C 1019.9 hPa WSW 15.8 km/h 15.8 km/h 83 % 0.0 mm
02:09 13.8 °C 11.0 °C 1019.9 hPa WSW 15.8 km/h 15.8 km/h 83 % 0.0 mm
02:14 13.8 °C 11.0 °C 1019.9 hPa WSW 15.8 km/h 15.8 km/h 83 % 0.0 mm
02:19 13.8 °C 11.0 °C 1019.9 hPa WSW 15.8 km/h 15.8 km/h 83 % 0.0 mm
02:24 13.8 °C 11.0 °C 1019.9 hPa WSW 15.8 km/h 15.8 km/h 83 % 0.0 mm
02:29 13.8 °C 11.0 °C 1019.9 hPa WSW 15.8 km/h 15.8 km/h 83 % 0.0 mm
02:34 13.8 °C 11.0 °C 1019.9 hPa WSW 15.8 km/h 15.8 km/h 83 % 0.0 mm
02:39 13.8 °C 11.0 °C 1019.9 hPa WSW 15.8 km/h 15.8 km/h 83 % 0.0 mm
02:44 13.8 °C 11.0 °C 1019.9 hPa WSW 15.8 km/h 15.8 km/h 83 % 0.0 mm
02:49 13.8 °C 11.0 °C 1019.9 hPa WSW 15.8 km/h 15.8 km/h 83 % 0.0 mm
02:54 13.8 °C 11.0 °C 1019.9 hPa WSW 15.8 km/h 15.8 km/h 83 % 0.0 mm
02:59 13.8 °C 11.0 °C 1019.9 hPa WSW 15.8 km/h 15.8 km/h 83 % 0.0 mm
02:05 13.8 °C 11.0 °C 1019.9 hPa WSW 15.8 km/h 15.8 km/h 83 % 0.0 mm
02:10 13.8 °C 11.0 °C 1019.9 hPa WSW 15.8 km/h 15.8 km/h 83 % 0.0 mm
02:15 13.8 °C 11.0 °C 1019.9 hPa WSW 15.8 km/h 15.8 km/h 83 % 0.0 mm
02:20 13.8 °C 11.0 °C 1019.9 hPa WSW 15.8 km/h 15.8 km/h 83 % 0.0 mm
02:25 13.8 °C 11.0 °C 1019.9 hPa WSW 15.8 km/h 15.8 km/h 83 % 0.0 mm
02:30 13.8 °C 11.0 °C 1019.9 hPa WSW 15.8 km/h 15.8 km/h 83 % 0.0 mm
02:35 13.8 °C 11.0 °C 1019.9 hPa WSW 15.8 km/h 15.8 km/h 83 % 0.0 mm
02:41 13.8 °C 11.0 °C 1019.9 hPa WSW 15.8 km/h 15.8 km/h 83 % 0.0 mm
02:46 13.8 °C 11.0 °C 1019.9 hPa WSW 15.8 km/h 15.8 km/h 83 % 0.0 mm
02:51 13.8 °C 11.0 °C 1019.9 hPa WSW 15.8 km/h 15.8 km/h 83 % 0.0 mm
02:56 13.8 °C 11.0 °C 1019.9 hPa WSW 15.8 km/h 15.8 km/h 83 % 0.0 mm
03:01 0.0 °C 11.0 °C 0.0 hPa West 15.1 km/h 15.8 km/h 0 % 0.0 mm
03:06 13.7 °C 13.0 °C 1015.1 hPa West 17.2 km/h 21.9 km/h 93 % 0.0 mm
03:15 13.7 °C 13.0 °C 1015.1 hPa West 17.7 km/h 21.2 km/h 93 % 0.0 mm
03:20 13.7 °C 13.0 °C 1015.1 hPa WSW 16.6 km/h 24.5 km/h 93 % 0.0 mm
03:25 13.7 °C 13.0 °C 1015.1 hPa WSW 17.2 km/h 24.5 km/h 93 % 0.0 mm
03:30 13.7 °C 13.0 °C 1014.1 hPa West 21.2 km/h 23.3 km/h 93 % 0.0 mm
03:35 13.7 °C 13.0 °C 1014.1 hPa WSW 24.5 km/h 31.7 km/h 93 % 0.0 mm
03:40 13.8 °C 13.0 °C 1015.1 hPa West 23.0 km/h 31.7 km/h 93 % 0.0 mm
03:45 13.8 °C 13.0 °C 1015.1 hPa West 27.4 km/h 28.5 km/h 92 % 0.0 mm
03:50 13.9 °C 13.0 °C 1015.1 hPa WSW 15.4 km/h 27.4 km/h 92 % 0.0 mm
03:55 13.9 °C 13.0 °C 1015.1 hPa WSW 20.6 km/h 27.4 km/h 92 % 0.0 mm
04:05 13.9 °C 13.0 °C 1015.1 hPa WSW 13.7 km/h 23.8 km/h 92 % 0.0 mm
04:11 13.9 °C 13.0 °C 1015.1 hPa WNW 16.9 km/h 23.8 km/h 92 % 0.0 mm
04:20 13.9 °C 13.0 °C 1015.1 hPa WNW 20.1 km/h 20.9 km/h 92 % 0.0 mm
04:21 13.9 °C 13.0 °C 1015.1 hPa WNW 20.1 km/h 20.9 km/h 92 % 0.0 mm
04:25 13.9 °C 13.0 °C 1015.1 hPa WSW 19.8 km/h 20.9 km/h 93 % 0.0 mm
04:28 13.9 °C 13.0 °C 1015.1 hPa WNW 19.1 km/h 20.1 km/h 93 % 0.0 mm
04:34 13.9 °C 13.0 °C 1015.1 hPa West 20.9 km/h 20.9 km/h 93 % 0.0 mm
04:39 13.9 °C 13.0 °C 1015.1 hPa West 10.1 km/h 30.2 km/h 94 % 0.0 mm
04:44 13.8 °C 13.0 °C 1015.1 hPa WNW 6.9 km/h 30.2 km/h 94 % 0.0 mm
04:49 13.8 °C 13.0 °C 1015.1 hPa WSW 16.3 km/h 22.7 km/h 95 % 0.0 mm
04:54 13.7 °C 13.0 °C 1015.1 hPa West 16.9 km/h 22.7 km/h 95 % 0.0 mm
04:59 13.7 °C 13.0 °C 1014.1 hPa WNW 15.8 km/h 25.9 km/h 96 % 0.0 mm
05:04 13.7 °C 13.0 °C 1014.1 hPa WSW 30.6 km/h 30.6 km/h 96 % 0.0 mm
05:09 13.7 °C 13.0 °C 1014.1 hPa West 21.2 km/h 30.6 km/h 96 % 0.0 mm
05:14 13.7 °C 13.0 °C 1015.1 hPa West 13.7 km/h 21.2 km/h 96 % 0.0 mm
05:19 13.8 °C 13.0 °C 1015.1 hPa West 12.6 km/h 23.0 km/h 96 % 0.0 mm
05:24 13.8 °C 13.0 °C 1015.1 hPa WSW 19.8 km/h 23.0 km/h 96 % 0.0 mm
05:29 13.8 °C 13.0 °C 1014.1 hPa WSW 14.8 km/h 26.2 km/h 96 % 0.0 mm
05:34 13.8 °C 13.0 °C 1014.1 hPa West 16.9 km/h 26.2 km/h 96 % 0.0 mm
05:39 13.8 °C 13.0 °C 1014.1 hPa West 12.2 km/h 20.6 km/h 96 % 0.0 mm
05:44 13.8 °C 13.0 °C 1015.1 hPa West 17.7 km/h 17.7 km/h 96 % 0.0 mm
05:49 13.8 °C 13.0 °C 1015.1 hPa West 14.0 km/h 17.7 km/h 96 % 0.0 mm
05:54 13.8 °C 13.0 °C 1015.1 hPa West 13.7 km/h 17.7 km/h 96 % 0.0 mm
05:59 13.8 °C 13.0 °C 1014.1 hPa SSW 21.2 km/h 21.2 km/h 97 % 0.0 mm
06:04 13.8 °C 13.0 °C 1014.1 hPa SSW 21.2 km/h 21.2 km/h 97 % 0.0 mm
06:09 13.8 °C 13.0 °C 1014.1 hPa West 17.2 km/h 21.2 km/h 97 % 0.0 mm
06:14 13.8 °C 13.0 °C 1014.1 hPa SSW 20.9 km/h 20.9 km/h 97 % 0.0 mm
06:19 13.8 °C 13.0 °C 1014.1 hPa West 11.9 km/h 20.9 km/h 97 % 0.0 mm
06:24 13.8 °C 13.0 °C 1014.1 hPa West 11.9 km/h 20.9 km/h 97 % 0.0 mm
06:29 13.8 °C 13.0 °C 1014.1 hPa West 16.9 km/h 22.7 km/h 97 % 0.0 mm
06:34 13.8 °C 13.0 °C 1014.1 hPa West 16.9 km/h 22.7 km/h 97 % 0.0 mm
06:39 13.8 °C 13.0 °C 1014.1 hPa West 16.9 km/h 16.9 km/h 97 % 0.0 mm
06:44 13.8 °C 13.0 °C 1014.1 hPa West 16.9 km/h 16.9 km/h 97 % 0.0 mm
06:50 13.8 °C 13.0 °C 1014.1 hPa West 13.7 km/h 16.9 km/h 97 % 0.0 mm
06:55 13.8 °C 13.0 °C 1014.1 hPa WSW 12.2 km/h 20.9 km/h 97 % 0.0 mm
07:00 13.8 °C 13.0 °C 1015.1 hPa West 9.7 km/h 21.2 km/h 97 % 0.0 mm
07:05 13.8 °C 13.0 °C 1015.1 hPa WNW 5.0 km/h 21.2 km/h 97 % 0.0 mm
07:10 13.8 °C 13.0 °C 1015.1 hPa WSW 15.1 km/h 17.7 km/h 97 % 0.0 mm
07:15 13.8 °C 14.0 °C 1015.1 hPa West 13.7 km/h 17.7 km/h 98 % 0.0 mm
07:20 13.8 °C 14.0 °C 1015.1 hPa NNW 10.1 km/h 19.8 km/h 98 % 0.0 mm
07:25 13.6 °C 13.0 °C 1015.1 hPa North 13.7 km/h 19.8 km/h 97 % 0.0 mm
07:30 13.3 °C 13.0 °C 1014.1 hPa NNE 11.6 km/h 17.7 km/h 96 % 1.3 mm
07:35 13.1 °C 13.0 °C 1014.1 hPa NNW 24.8 km/h 24.8 km/h 96 % 1.8 mm
07:40 12.9 °C 13.0 °C 1014.1 hPa NW 23.0 km/h 24.8 km/h 97 % 1.8 mm
07:45 12.8 °C 13.0 °C 1015.1 hPa North 4.3 km/h 24.8 km/h 97 % 2.3 mm
07:50 12.6 °C 13.0 °C 1015.1 hPa West 7.2 km/h 23.0 km/h 98 % 2.5 mm
07:55 12.6 °C 13.0 °C 1015.1 hPa NNE 11.9 km/h 16.9 km/h 98 % 2.5 mm
08:00 12.5 °C 13.0 °C 1015.1 hPa NNE 11.9 km/h 11.9 km/h 98 % 2.5 mm
08:05 12.4 °C 13.0 °C 1015.1 hPa NNE 11.9 km/h 11.9 km/h 98 % 2.8 mm
08:10 12.4 °C 13.0 °C 1015.1 hPa NNE 11.9 km/h 11.9 km/h 98 % 2.8 mm
08:15 12.3 °C 13.0 °C 1016.1 hPa NNE 11.9 km/h 11.9 km/h 98 % 2.8 mm
08:20 12.3 °C 13.0 °C 1016.1 hPa NNE 11.9 km/h 11.9 km/h 98 % 2.8 mm
08:25 12.3 °C 13.0 °C 1016.1 hPa NNE 11.9 km/h 11.9 km/h 98 % 2.8 mm
08:30 12.3 °C 13.0 °C 1016.1 hPa NNE 11.9 km/h 11.9 km/h 98 % 1.5 mm
08:35 12.3 °C 13.0 °C 1016.1 hPa North 7.6 km/h 7.6 km/h 98 % 0.8 mm
08:40 12.3 °C 13.0 °C 1016.8 hPa Calm   7.6 km/h 98 % 0.5 mm
08:46 12.3 °C 13.0 °C 1016.8 hPa Calm   7.6 km/h 98 % 0.5 mm
08:51 12.3 °C 13.0 °C 1016.8 hPa Calm     98 % 0.3 mm
08:56 12.3 °C 13.0 °C 1016.8 hPa Calm     98 % 0.3 mm
09:01 12.2 °C 12.0 °C 1016.8 hPa Calm     98 % 0.3 mm
09:06 12.2 °C 12.0 °C 1016.8 hPa Calm     98 % 0.0 mm
09:11 12.2 °C 12.0 °C 1016.1 hPa Calm     97 % 0.0 mm
09:16 12.1 °C 12.0 °C 1016.1 hPa Calm     97 % 0.0 mm
09:21 12.1 °C 12.0 °C 1016.1 hPa Calm     96 % 0.0 mm
09:26 12.1 °C 12.0 °C 1016.8 hPa Calm     96 % 0.0 mm
09:32 12.2 °C 12.0 °C 1016.8 hPa Calm     95 % 0.0 mm
09:37 12.2 °C 12.0 °C 1016.8 hPa Calm     95 % 0.0 mm
09:42 12.2 °C 12.0 °C 1018.2 hPa Calm     95 % 0.0 mm
09:47 12.2 °C 11.0 °C 1018.2 hPa Calm     94 % 0.0 mm
09:57 12.2 °C 11.0 °C 1018.2 hPa Calm     92 % 0.0 mm
10:02 12.2 °C 11.0 °C 1018.2 hPa Calm     92 % 0.0 mm
10:07 12.2 °C 11.0 °C 1018.2 hPa Calm     92 % 0.0 mm
10:12 12.3 °C 11.0 °C 1018.2 hPa Calm     92 % 0.0 mm
10:17 12.3 °C 11.0 °C 1018.2 hPa Calm     91 % 0.0 mm
10:22 12.4 °C 11.0 °C 1018.2 hPa Calm     90 % 0.0 mm
10:27 12.4 °C 11.0 °C 1018.2 hPa Calm     90 % 0.0 mm
10:32 12.4 °C 11.0 °C 1018.2 hPa Calm     90 % 0.0 mm
10:37 12.3 °C 11.0 °C 1018.2 hPa Calm     89 % 0.0 mm
10:42 12.4 °C 11.0 °C 1018.8 hPa Calm     89 % 0.0 mm
10:47 12.4 °C 11.0 °C 1018.8 hPa Calm     88 % 0.0 mm
10:52 12.5 °C 11.0 °C 1018.8 hPa Calm     89 % 0.0 mm
10:57 12.6 °C 11.0 °C 1018.8 hPa Calm     88 % 0.0 mm
11:02 12.7 °C 11.0 °C 1018.8 hPa Calm     87 % 0.0 mm
11:07 12.8 °C 11.0 °C 1018.8 hPa Calm     85 % 0.0 mm
11:11 12.8 °C 11.0 °C 1018.2 hPa Calm     84 % 0.0 mm
11:16 12.8 °C 10.0 °C 1018.2 hPa Calm     82 % 0.0 mm
11:26 12.9 °C 10.0 °C 1018.8 hPa Calm     80 % 0.0 mm
11:31 13.0 °C 9.0 °C 1018.8 hPa Calm     78 % 0.0 mm
11:36 13.0 °C 9.0 °C 1018.8 hPa Calm     74 % 0.0 mm
11:41 13.0 °C 9.0 °C 1018.8 hPa Calm     73 % 0.0 mm
11:46 13.1 °C 8.0 °C 1018.8 hPa Calm     69 % 0.0 mm
11:51 13.1 °C 8.0 °C 1018.8 hPa Calm     68 % 0.0 mm
11:56 13.2 °C 8.0 °C 1018.8 hPa Calm     67 % 0.0 mm
12:01 13.3 °C 8.0 °C 1018.8 hPa Calm     69 % 0.0 mm
12:06 13.3 °C 7.0 °C 1018.8 hPa Calm     64 % 0.0 mm
12:11 13.3 °C 7.0 °C 1018.8 hPa Calm     64 % 0.0 mm
12:16 13.3 °C 7.0 °C 1018.8 hPa Calm     63 % 0.0 mm
12:21 13.3 °C 6.0 °C 1018.8 hPa Calm     61 % 0.0 mm
12:26 13.4 °C 6.0 °C 1019.9 hPa Calm     62 % 0.0 mm
12:31 13.5 °C 7.0 °C 1019.9 hPa Calm     62 % 0.0 mm
12:36 13.5 °C 7.0 °C 1019.9 hPa Calm     63 % 0.0 mm
12:42 13.5 °C 8.0 °C 1018.8 hPa Calm     65 % 0.0 mm
12:47 13.3 °C 7.0 °C 1018.8 hPa Calm     66 % 0.0 mm
12:52 12.9 °C 7.0 °C 1018.8 hPa Calm     65 % 0.0 mm
12:57 12.9 °C 7.0 °C 1019.9 hPa Calm     65 % 0.0 mm
13:02 13.6 °C 6.0 °C 1019.9 hPa Calm     61 % 0.0 mm
13:07 13.6 °C 6.0 °C 1019.9 hPa Calm     60 % 0.0 mm
13:12 13.7 °C 7.0 °C 1019.9 hPa Calm     62 % 0.0 mm
13:17 13.8 °C 7.0 °C 1019.9 hPa Calm     62 % 0.0 mm
13:22 14.1 °C 6.0 °C 1019.9 hPa Calm     56 % 0.0 mm
13:27 14.3 °C 6.0 °C 1019.9 hPa Calm     54 % 0.0 mm
13:32 14.4 °C 5.0 °C 1019.9 hPa Calm     53 % 0.0 mm
13:37 14.2 °C 5.0 °C 1019.9 hPa Calm     52 % 0.0 mm
13:42 14.3 °C 6.0 °C 1020.9 hPa Calm     54 % 0.0 mm
13:47 14.4 °C 5.0 °C 1020.9 hPa Calm     53 % 0.0 mm
13:52 14.6 °C 6.0 °C 1020.9 hPa Calm     53 % 0.0 mm
13:57 14.8 °C 6.0 °C 1020.9 hPa Calm     54 % 0.0 mm
14:02 14.2 °C 5.0 °C 1020.9 hPa Calm     53 % 0.0 mm
14:07 13.5 °C 7.0 °C 1020.9 hPa Calm     62 % 0.0 mm
14:12 13.2 °C 7.0 °C 1020.9 hPa Calm     65 % 0.0 mm
14:17 13.0 °C 7.0 °C 1020.9 hPa Calm     65 % 0.0 mm
14:22 13.0 °C 7.0 °C 1020.9 hPa Calm     65 % 0.0 mm
14:27 12.7 °C 6.0 °C 1020.9 hPa Calm     64 % 0.0 mm
14:32 12.8 °C 7.0 °C 1020.9 hPa Calm     64 % 0.0 mm
14:37 13.3 °C 6.0 °C 1020.9 hPa Calm     62 % 0.0 mm
14:42 13.6 °C 6.0 °C 1020.9 hPa Calm     61 % 0.0 mm
14:47 13.4 °C 6.0 °C 1020.9 hPa Calm     58 % 0.0 mm
14:52 13.9 °C 7.0 °C 1020.9 hPa Calm     62 % 0.0 mm
14:57 14.0 °C 7.0 °C 1021.9 hPa Calm     61 % 0.0 mm
15:02 13.7 °C 9.0 °C 1021.9 hPa Calm     70 % 0.0 mm
15:07 13.2 °C 8.0 °C 1021.9 hPa Calm     70 % 0.0 mm
15:12 13.0 °C 8.0 °C 1020.9 hPa Calm     71 % 0.0 mm
15:17 12.6 °C 8.0 °C 1020.9 hPa Calm     71 % 0.0 mm
15:22 12.7 °C 9.0 °C 1020.9 hPa Calm     74 % 0.0 mm
15:27 12.2 °C 8.0 °C 1019.9 hPa Calm     75 % 0.0 mm
15:32 11.5 °C 9.0 °C 1019.9 hPa Calm     80 % 0.0 mm
15:37 11.3 °C 9.0 °C 1019.9 hPa Calm     83 % 0.0 mm
15:42 11.7 °C 9.0 °C 1019.9 hPa Calm     85 % 0.0 mm
15:47 11.8 °C 9.0 °C 1019.9 hPa Calm     85 % 0.0 mm
15:52 11.9 °C 9.0 °C 1019.9 hPa Calm     84 % 0.0 mm
15:57 11.9 °C 9.0 °C 1020.9 hPa Calm     83 % 0.0 mm
16:02 11.9 °C 9.0 °C 1020.9 hPa Calm     83 % 0.0 mm
16:07 11.8 °C 9.0 °C 1020.9 hPa Calm     82 % 0.0 mm
16:12 11.7 °C 9.0 °C 1020.9 hPa Calm     81 % 0.0 mm
16:17 11.7 °C 9.0 °C 1020.9 hPa Calm     80 % 0.0 mm
16:22 11.6 °C 8.0 °C 1020.9 hPa Calm     75 % 0.0 mm
16:27 11.4 °C 7.0 °C 1021.9 hPa Calm     76 % 0.0 mm
16:32 11.2 °C 8.0 °C 1021.9 hPa Calm     77 % 0.0 mm
16:37 10.9 °C 7.0 °C 1021.9 hPa Calm     76 % 0.0 mm
16:42 10.8 °C 7.0 °C 1021.9 hPa Calm     77 % 0.3 mm
16:47 10.6 °C 8.0 °C 1021.9 hPa Calm     81 % 0.3 mm
16:52 10.5 °C 8.0 °C 1021.9 hPa Calm     82 % 0.3 mm
16:57 10.3 °C 8.0 °C 1021.9 hPa Calm     83 % 0.3 mm
17:02 10.3 °C 8.0 °C 1021.9 hPa Calm     84 % 0.3 mm
17:07 10.3 °C 8.0 °C 1021.9 hPa Calm     84 % 0.3 mm
17:12 10.2 °C 8.0 °C 1021.9 hPa Calm     84 % 0.3 mm
17:17 10.1 °C 8.0 °C 1021.9 hPa Calm     84 % 0.3 mm
17:22 10.1 °C 8.0 °C 1021.9 hPa Calm     84 % 0.3 mm
17:28 10.0 °C 8.0 °C 1021.9 hPa Calm     84 % 0.3 mm
17:33 9.9 °C 8.0 °C 1021.9 hPa Calm     84 % 0.3 mm
17:38 9.8 °C 7.0 °C 1021.9 hPa Calm     84 % 0.3 mm
17:43 9.8 °C 7.0 °C 1022.9 hPa Calm     84 % 0.0 mm
17:48 9.8 °C 7.0 °C 1022.9 hPa Calm     84 % 0.0 mm
17:53 9.8 °C 8.0 °C 1022.9 hPa Calm     85 % 0.0 mm
17:58 9.7 °C 8.0 °C 1022.9 hPa Calm     86 % 0.0 mm
18:03 9.6 °C 8.0 °C 1022.9 hPa Calm     86 % 0.0 mm
18:08 9.5 °C 8.0 °C 1022.9 hPa Calm     86 % 0.0 mm
18:09 9.5 °C 8.0 °C 1022.9 hPa Calm     86 % 0.0 mm
18:14 9.5 °C 8.0 °C 1022.9 hPa Calm     86 % 0.0 mm
18:19 9.4 °C 7.0 °C 1022.9 hPa Calm     85 % 0.0 mm
18:24 9.5 °C 7.0 °C 1022.9 hPa Calm     84 % 0.0 mm
18:29 9.6 °C 7.0 °C 1021.9 hPa Calm     82 % 0.0 mm
18:30 9.6 °C 7.0 °C 1021.9 hPa Calm     82 % 0.0 mm
18:35 9.6 °C 7.0 °C 1021.9 hPa Calm     82 % 0.0 mm
18:40 9.5 °C 7.0 °C 1021.9 hPa Calm     83 % 0.0 mm
18:45 9.4 °C 7.0 °C 1022.9 hPa Calm     83 % 0.0 mm
18:50 9.3 °C 7.0 °C 1022.9 hPa Calm     83 % 0.0 mm
18:55 9.2 °C 7.0 °C 1022.9 hPa Calm     82 % 0.0 mm
19:05 9.1 °C 6.0 °C 1021.9 hPa Calm     82 % 0.0 mm
19:10 9.0 °C 6.0 °C 1021.9 hPa Calm     82 % 0.0 mm
19:15 8.9 °C 6.0 °C 1021.9 hPa Calm     82 % 0.0 mm
19:20 8.7 °C 6.0 °C 1021.9 hPa Calm     82 % 0.0 mm
19:25 8.6 °C 6.0 °C 1022.9 hPa Calm     83 % 0.0 mm
19:30 8.5 °C 6.0 °C 1022.9 hPa Calm     83 % 0.0 mm
19:35 8.3 °C 6.0 °C 1022.9 hPa Calm     83 % 0.0 mm
19:40 8.2 °C 6.0 °C 1022.9 hPa Calm     83 % 0.0 mm
19:45 8.1 °C 6.0 °C 1022.9 hPa Calm     84 % 0.0 mm
19:50 8.0 °C 6.0 °C 1022.9 hPa Calm     84 % 0.0 mm
19:55 8.0 °C 6.0 °C 1022.9 hPa Calm     85 % 0.0 mm
20:00 8.0 °C 6.0 °C 1022.9 hPa Calm     86 % 0.0 mm
20:05 7.9 °C 6.0 °C 1022.9 hPa Calm     87 % 0.0 mm
20:10 7.9 °C 6.0 °C 1023.9 hPa Calm     87 % 0.0 mm
20:15 7.8 °C 6.0 °C 1023.9 hPa Calm     87 % 0.0 mm
20:20 7.8 °C 6.0 °C 1023.9 hPa Calm     87 % 0.0 mm
20:25 7.9 °C 6.0 °C 1022.9 hPa Calm     88 % 0.0 mm
20:30 7.9 °C 6.0 °C 1022.9 hPa Calm     89 % 0.0 mm
20:35 7.9 °C 6.0 °C 1022.9 hPa Calm     89 % 0.0 mm
20:40 7.9 °C 6.0 °C 1023.9 hPa Calm     89 % 0.0 mm
20:45 7.9 °C 6.0 °C 1023.9 hPa Calm     89 % 0.0 mm
20:50 8.0 °C 7.0 °C 1023.9 hPa Calm     89 % 0.0 mm
20:55 7.9 °C 6.0 °C 1023.9 hPa Calm     89 % 0.0 mm
21:00 7.9 °C 6.0 °C 1023.9 hPa Calm     89 % 0.0 mm
21:05 7.9 °C 6.0 °C 1023.9 hPa Calm     88 % 0.0 mm
21:11 7.8 °C 6.0 °C 1023.9 hPa Calm     88 % 0.0 mm
21:15 7.5 °C 6.0 °C 1023.9 hPa Calm     87 % 0.0 mm
21:20 7.3 °C 6.0 °C 1023.9 hPa Calm     87 % 0.0 mm
21:25 7.0 °C 5.0 °C 1024.9 hPa Calm     87 % 0.0 mm
21:31 6.8 °C 5.0 °C 1024.9 hPa Calm     88 % 0.0 mm
21:36 6.6 °C 5.0 °C 1024.9 hPa Calm     88 % 0.0 mm
21:41 6.4 °C 5.0 °C 1024.9 hPa Calm     88 % 0.0 mm
21:46 6.3 °C 5.0 °C 1024.9 hPa Calm     89 % 0.0 mm
21:51 6.0 °C 5.0 °C 1024.9 hPa Calm     89 % 0.0 mm
21:56 6.0 °C 5.0 °C 1024.9 hPa Calm     89 % 0.0 mm
22:01 5.9 °C 5.0 °C 1024.9 hPa Calm     91 % 0.0 mm
22:06 6.0 °C 5.0 °C 1024.9 hPa Calm     91 % 0.0 mm
22:11 6.1 °C 5.0 °C 1024.9 hPa Calm     92 % 0.0 mm
22:16 6.1 °C 5.0 °C 1024.9 hPa Calm     93 % 0.0 mm
22:21 6.1 °C 5.0 °C 1024.9 hPa Calm     93 % 0.0 mm
22:26 6.2 °C 6.0 °C 1024.9 hPa Calm     93 % 0.0 mm
22:31 6.5 °C 6.0 °C 1024.9 hPa Calm     95 % 0.0 mm
22:36 6.7 °C 6.0 °C 1024.9 hPa Calm     95 % 0.0 mm
22:41 6.8 °C 6.0 °C 1026.0 hPa Calm     95 % 0.0 mm
22:46 7.0 °C 6.0 °C 1026.0 hPa Calm     95 % 0.0 mm
22:51 7.2 °C 7.0 °C 1026.0 hPa Calm     96 % 0.0 mm
22:56 7.4 °C 7.0 °C 1024.9 hPa Calm     96 % 0.0 mm
23:02 7.5 °C 7.0 °C 1024.9 hPa Calm     95 % 0.0 mm
23:07 7.7 °C 7.0 °C 1024.9 hPa Calm     95 % 0.0 mm
23:12 7.8 °C 7.0 °C 1024.9 hPa Calm     95 % 0.0 mm
23:17 7.9 °C 7.0 °C 1024.9 hPa Calm     95 % 0.0 mm
23:22 8.0 °C 7.0 °C 1024.9 hPa Calm     94 % 0.0 mm
23:27 8.0 °C 7.0 °C 1024.9 hPa Calm     94 % 0.0 mm
23:32 8.0 °C 7.0 °C 1024.9 hPa Calm     94 % 0.0 mm
23:37 7.9 °C 7.0 °C 1024.9 hPa Calm     94 % 0.0 mm
23:42 8.0 °C 7.0 °C 1023.9 hPa Calm     94 % 0.0 mm
23:47 8.1 °C 7.0 °C 1023.9 hPa Calm     94 % 0.0 mm
23:52 8.2 °C 7.0 °C 1023.9 hPa Calm     94 % 0.0 mm
23:57 8.2 °C 7.0 °C 1024.9 hPa Calm     94 % 0.0 mm
Le Gheer Warneton
Courtoisie de Weather Underground - 2.25 mb

Mise a jour : 18/12/2017 04:04:13
Généré par Cumulus 1.9.4 (1099)